Oklahoma City, OK

7:07 AM CDT on August 20, 2017 (GMT -0500)
Will Rogers World

Weather History for KOKC - May, 2013

Change the Weather History Date:

Friday, May 17, 2013

  Actual Average Record
Temperature  
Mean Temperature 67 °F 70 °F  
Max Temperature 73 °F 80 °F 96 °F (1966)
Min Temperature 60 °F 60 °F 40 °F (1945)
Degree Days  
Heating Degree Days 0 1  
Month to date heating degree days 25  
Since 1 July heating degree days 3357  
Cooling Degree Days 2 6  
Month to date cooling degree days 33 76  
Year to date cooling degree days 61 142  
Growing Degree Days 16 (Base 50)    
Moisture  
Dew Point 66 °F    
Average Humidity 94    
Maximum Humidity 100    
Minimum Humidity 87    
Precipitation  
Precipitation 0.00 in 0.14 in 2.99 in (1952)
Month to date precipitation 1.10 2.42  
Year to date precipitation 13.62 11.52  
Snow  
Snow 0.00 in 0.00 in 0.00 in (2002)
Month to date snowfall 0.0  
Since 1 July snowfall 7.6  
Snow Depth -    
Sea Level Pressure  
Sea Level Pressure 29.84 in    
Wind  
Wind Speed 9 mph (ESE)    
Max Wind Speed 17 mph    
Max Gust Speed 22 mph    
Visibility 3 miles    
Events Fog    
T = Trace of Precipitation, MM = Missing Value Source: NWS Daily Summary

Daily Weather History Graph

Daily Weather History Graph

Search for Another Location

Airport or City:

Trip Planner

Search our weather history database for the weather conditions in past years. The results will help you decide how hot, cold, wet, or windy it might be!

Date:

Astronomy

May. 17, 2013 Rise Set
Actual Time 6:24 AM CDT 8:29 PM CDT
Civil Twilight 5:55 AM CDT 8:58 PM CDT
Nautical Twilight 5:21 AM CDT 9:32 PM CDT
Astronomical Twilight 4:43 AM CDT 10:10 PM CDT
Moon 12:51 PM CDT (5/17) 1:28 AM CDT (5/17)
Length of Visible Light 15h 02m
Length of Day
14h 05m
Waxing Crescent, 45% of the Moon is Illuminated
May 17
Waxing Crescent
May 17
First Quarter
May 24
Full
May 31
Last Quarter
Jun 8
New

Hourly Weather History & Observations

Time (CDT) Temp. Dew Point Humidity Pressure Visibility Wind Dir Wind Speed Gust Speed Precip Events Conditions
12:52 AM 62.1 °F 60.1 °F 93% 29.80 in 6.0 mi SE 6.9 mph - N/A   Clear
1:19 AM 60.8 °F 59.0 °F 94% 29.85 in 4.0 mi South 3.5 mph - N/A   Scattered Clouds
1:26 AM 60.8 °F 59.0 °F 94% 29.85 in 3.0 mi South 3.5 mph - N/A   Mostly Cloudy
1:47 AM 62.6 °F 60.8 °F 94% 29.85 in 5.0 mi East 3.5 mph - N/A   Overcast
1:52 AM 63.0 °F 61.0 °F 93% 29.82 in 6.0 mi East 5.8 mph - N/A   Overcast
2:01 AM 62.6 °F 60.8 °F 94% 29.84 in 6.0 mi East 4.6 mph - N/A   Overcast
2:10 AM 62.6 °F 60.8 °F 94% 29.85 in 6.0 mi ENE 5.8 mph - N/A   Overcast
2:52 AM 63.0 °F 61.0 °F 93% 29.84 in 6.0 mi NE 4.6 mph - N/A   Overcast
3:52 AM 63.0 °F 61.0 °F 93% 29.83 in 5.0 mi ENE 5.8 mph - N/A   Overcast
4:28 AM 62.6 °F 60.8 °F 94% 29.85 in 1.0 mi ESE 5.8 mph - N/A   Overcast
4:52 AM 62.1 °F 61.0 °F 96% 29.82 in 1.0 mi ESE 4.6 mph - N/A   Overcast
5:13 AM 62.6 °F 60.8 °F 94% 29.84 in 4.0 mi SSE 4.6 mph - N/A   Overcast
5:33 AM 62.6 °F 60.8 °F 94% 29.84 in 2.0 mi SE 5.8 mph - N/A   Overcast
5:52 AM 63.0 °F 62.1 °F 97% 29.81 in 1.0 mi SSE 4.6 mph - N/A   Overcast
6:52 AM 63.0 °F 62.1 °F 97% 29.81 in 1.0 mi East 5.8 mph - N/A   Overcast
7:14 AM 64.4 °F 62.6 °F 94% 29.85 in 0.5 mi East 8.1 mph - N/A Fog Fog
7:52 AM 64.0 °F 63.0 °F 96% 29.83 in 0.5 mi East 8.1 mph - N/A   Overcast
8:52 AM 64.9 °F 64.0 °F 97% 29.86 in 0.5 mi East 9.2 mph - N/A   Overcast
9:06 AM 66.2 °F 64.4 °F 94% 29.88 in 1.0 mi East 8.1 mph - N/A   Overcast
9:52 AM 66.0 °F 64.9 °F 96% 29.85 in 1.0 mi ESE 9.2 mph - N/A   Overcast
10:18 AM 66.2 °F 66.2 °F 100% 29.88 in 2.5 mi ESE 8.1 mph - N/A   Overcast
10:27 AM 66.2 °F 66.2 °F 100% 29.88 in 3.0 mi ESE 9.2 mph - N/A   Overcast
10:52 AM 68.0 °F 66.0 °F 93% 29.86 in 4.0 mi ESE 9.2 mph - N/A   Overcast
11:29 AM 69.8 °F 66.2 °F 88% 29.89 in 5.0 mi ESE 9.2 mph - N/A   Overcast
11:52 AM 70.0 °F 66.9 °F 90% 29.86 in 5.0 mi ESE 9.2 mph - N/A   Overcast
12:30 PM 69.8 °F 66.2 °F 88% 29.89 in 2.0 mi East 9.2 mph - N/A   Overcast
12:52 PM 70.0 °F 66.9 °F 90% 29.86 in 2.0 mi ESE 8.1 mph - N/A   Overcast
1:21 PM 69.8 °F 68.0 °F 94% 29.88 in 1.5 mi ESE 8.1 mph - N/A   Overcast
1:52 PM 70.0 °F 68.0 °F 93% 29.85 in 1.5 mi ESE 9.2 mph - N/A   Overcast
2:30 PM 71.6 °F 68.0 °F 88% 29.87 in 1.5 mi ESE 10.4 mph - N/A   Overcast
2:39 PM 71.6 °F 68.0 °F 88% 29.87 in 2.0 mi ESE 11.5 mph - N/A   Overcast
2:52 PM 71.1 °F 68.0 °F 90% 29.84 in 2.0 mi SE 10.4 mph - N/A   Overcast
3:52 PM 72.0 °F 68.0 °F 87% 29.83 in 2.0 mi ESE 10.4 mph - N/A   Overcast
4:52 PM 72.0 °F 69.1 °F 91% 29.82 in 2.0 mi ESE 10.4 mph - N/A   Overcast
5:22 PM 73.4 °F 69.8 °F 88% 29.84 in 3.0 mi ESE 10.4 mph - N/A   Overcast
5:52 PM 73.0 °F 69.1 °F 87% 29.81 in 3.0 mi ESE 10.4 mph - N/A   Overcast
6:47 PM 73.4 °F 69.8 °F 88% 29.83 in 3.0 mi East 11.5 mph - N/A   Overcast
6:52 PM 73.0 °F 69.1 °F 87% 29.80 in 3.0 mi East 10.4 mph - N/A   Overcast
7:14 PM 73.4 °F 69.8 °F 88% 29.84 in 3.0 mi East 12.7 mph - N/A   Overcast
7:52 PM 73.0 °F 69.1 °F 87% 29.81 in 3.0 mi East 11.5 mph - N/A   Overcast
8:29 PM 71.6 °F 69.8 °F 94% 29.85 in 6.0 mi East 8.1 mph - N/A   Overcast
8:47 PM 71.6 °F 69.8 °F 94% 29.86 in 6.0 mi East 6.9 mph - N/A   Overcast
8:52 PM 72.0 °F 69.1 °F 91% 29.83 in 6.0 mi East 9.2 mph - N/A   Overcast
9:40 PM 71.6 °F 69.8 °F 94% 29.86 in 5.0 mi East 11.5 mph - N/A   Overcast
9:52 PM 72.0 °F 69.1 °F 91% 29.83 in 5.0 mi East 12.7 mph - N/A   Overcast
10:12 PM 71.6 °F 69.8 °F 94% 29.86 in 6.0 mi East 12.7 mph - N/A   Overcast
10:52 PM 73.0 °F 70.0 °F 90% 29.83 in 5.0 mi ESE 11.5 mph - N/A   Overcast
11:04 PM 73.4 °F 69.8 °F 88% 29.86 in 5.0 mi ESE 13.8 mph - N/A   Overcast
11:12 PM 73.4 °F 69.8 °F 88% 29.86 in 5.0 mi SE 13.8 mph - N/A   Overcast
11:52 PM 72.0 °F 70.0 °F 93% 29.81 in 5.0 mi SE 11.5 mph - N/A   Overcast